Погода в Нововоскресеновке

Россия / Амурская область     52°06′21″N   126°34′01″E
темп.,
°C
ветер,
м/с
пор.,
м/с
влажн.,
%
обл.,
%
осадки,
мм/ч
давл.,
гПа
погр.,
м
6 марта, сб
сб600:00−23зсз26880 0.0 1034131
03:00−24зсз23910 0.0 103449
06:00−25з12870 0.0 103420
09:00−20з26790 0.0 1033256
12:00−14сз25690 0.0 1031884
15:00−12сз246913 0.0 10281104
18:00−15всв118260 0.0 102720
21:00−19вюв128944 0.0 102620
7 марта, вс
вс700:00−18в1296100 0.0 102524
03:00−18в1195100 0.0 102323
06:00−18ссв1198100 0.2 102227
09:00−16с2395100 0.4 1023226
12:00−14ссз3489100 0.1 1024435
15:00−12с2483100 0.1 1024613
18:00−15вюв019099 0.0 102520
21:00−18ююз129352 0.0 102620
8 марта, пн
пн800:00−18ю22960 0.0 102620
03:00−18ююв22950 0.0 102420
06:00−18ююв23949 0.0 102250
09:00−11ю388110 0.0 1020297
12:00−5ююз377695 0.0 1016479
15:00−2ююз377698 0.0 1012668
18:00−3ююз3984100 0.0 1009476
21:00−3юз41287100 0.0 1008637
9 марта, вт
вт900:00−4зсз31189100 0.2 1007536
03:00−10ссз3895100 0.2 1008211
06:00−14ссз279648 0.0 1010187
09:00−12ссз5118474 0.0 1013477
12:00−5сз611699 0.0 10161199
15:00−4сз7126917 0.0 10181513
18:00−6сз5137264 0.0 10201104
21:00−10сз3138334 0.0 1023469
10 марта, ср
ср1000:00−13зсз36870 0.0 1024104
03:00−15з22870 0.0 102420
06:00−16ююз11865 0.0 102420
09:00−10ююв368147 0.0 1022216
12:00−4ю4972100 0.0 1019577
15:00−2ююз4965100 0.0 10161224
18:00−4юз2696100 0.8 1016399
21:00−6зсз269799 1.3 1017164